Regional Weather Roundup
Issued by NWS Bismarck, ND

Home | Current Version | Previous Version | Text Only | Print | Product List | Glossary On
Versions: 1 2 3 4 5 6 7 8 9 10 11 12 13 14 15 16 17 18 19 20 21 22 23 24 25 26 27 28 29 30 31 32 33 34 35 36 37 38 39 40 41 42 43 44 45 46 47 48 49 50
000
ASUS43 KBIS 301402
RWRBIS

NWR BROADCAST TEXT
NATIONAL WEATHER SERVICE BISMARCK ND
900 AM CDT SAT JUL 30 2016

NOTE: "FAIR" INDICATES FEW OR NO CLOUDS BELOW 12,000 FEET WITH NO
SIGNIFICANT WEATHER AND/OR OBSTRUCTIONS TO VISIBILITY.


CITY           SKY/WX    TMP DP  RH WIND       PRES   REMARKS
WILLISTON      SUNNY     66  58  75 CALM      29.90F
MINOT          SUNNY     73  61  65 S12       29.89F
MINOT AFB      SUNNY     69  62  79 S9        29.88
BISMARCK       PTSUNNY   66  64  93 SE9       29.92F
DICKINSON      SUNNY     61  60  97 S3        29.91S
GARRISON         N/A     68  63  84 S7        29.91S
HETTINGER ARPT SUNNY     67  58  72 SE3       29.93F
JAMESTOWN      NOT AVBL
CARRINGTON     PTSUNNY   70  64  83 S7        29.96S
HAZEN          FAIR      68  63  83 S13       29.92S
OAKES            N/A    N/A N/A N/A MISG        N/A
STANLEY        FAIR      66  66 100 CALM      29.94S
$$

CITY           SKY/WX    TMP DP  RH WIND       PRES   REMARKS
GRAND FORKS    PTSUNNY   70  63  78 SE12      29.95F
GRAND FORKS AF SUNNY     69  64  83 SE10      29.95
DEVILS LAKE    SUNNY     69  62  78 SW12      29.94S
FARGO          SUNNY     72  62  71 S5        29.98S
CAVALIER       FAIR      68  64  88 S12       29.93F
GRAFTON        FAIR      68  66  94 SE13      29.96S
GWINNER        FAIR      68  61  77 SW9       29.99S
LANGDON        FAIR      68  64  88 S9        29.95S
ROLLA          FAIR      64  64 100 S7        29.94S
$$

CITY           SKY/WX    TMP DP  RH WIND       PRES   REMARKS
ABERDEEN       SUNNY     68  57  68 S13       29.99R
MOBRIDGE       SUNNY     72  58  61 S16       29.92R
BUFFALO          N/A     70  59  68 E5        29.87S
RAPID CITY     SUNNY     64  59  83 VRB3      29.94F
GLASGOW        SUNNY     66  55  67 E9        29.86F
SIDNEY         SUNNY     61  52  72 SE3       29.90F
WOLF POINT     SUNNY     63  54  72 E7        29.88F
GLENDIVE       SUNNY     66  53  63 CALM      29.91F
MILES CITY     SUNNY     68  52  56 NE7       29.88S
BAKER          SUNNY     69  58  67 E6        29.93S
$$

CITY           SKY/WX    TMP DP  RH WIND       PRES   REMARKS
BILLINGS       MOSUNNY   67  54  63 CALM      29.90S
GREAT FALLS    PTSUNNY   71  49  45 S12       29.84S
$$





USA.gov is the U.S. government's official web portal to all federal, state and local government web resources and services.